,,,PA_Meas_PMT16A,,PR_Meas_QMR101_102,,RH_Meas_QMH101,,SR_Meas_QMS101,,TA_Meas_QMH101,,GenWind,,GenWind,
date,time,status,PA,status,PR,status,RH,status,SR,status,TA,status,DirAvg,status,SpdAvg,
2009-03-29, 00:00:04,VALID,1001.3,VALID,0,VALID,91.6699,VALID,0,VALID,23.2347,VALID,115,VALID,0.592969,
2009-03-29, 00:01:04,VALID,1001.26,VALID,0,VALID,91.6088,VALID,0,VALID,23.2737,VALID,116,VALID,0.491406,
2009-03-29, 00:02:04,VALID,1001.24,VALID,0,VALID,91.6699,VALID,0,VALID,23.2542,VALID,116,VALID,0.516406,
2009-03-29, 00:03:04,VALID,1001.19,VALID,0,VALID,91.7309,VALID,0,VALID,23.2737,VALID,116,VALID,0.397266,
2009-03-29, 00:04:04,VALID,1001.18,VALID,0,VALID,91.647,VALID,0,VALID,23.295,VALID,116,VALID,0.419531,
2009-03-29, 00:05:04,VALID,1001.14,VALID,0,VALID,91.6699,VALID,0,VALID,23.2542,VALID,116,VALID,0.464844,
2009-03-29, 00:06:04,VALID,1001.1,VALID,0,VALID,91.647,VALID,0,VALID,23.2542,VALID,100,VALID,0.687109,
2009-03-29, 00:07:04,VALID,1001.11,VALID,0,VALID,91.6623,VALID,0,VALID,23.2347,VALID,99,VALID,0.641797,
2009-03-29, 00:08:04,VALID,1001.12,VALID,0,VALID,91.7691,VALID,0,VALID,23.2134,VALID,88,VALID,0.778516,
2009-03-29, 00:09:04,VALID,1001.07,VALID,0,VALID,91.4791,VALID,0,VALID,23.2152,VALID,84,VALID,0.862891,
2009-03-29, 00:10:04,VALID,1001.08,VALID,0,VALID,91.5554,VALID,0,VALID,23.1549,VALID,79,VALID,0.879687,
2009-03-29, 00:11:04,VALID,1001.05,VALID,0,VALID,91.8072,VALID,0,VALID,23.1549,VALID,79,VALID,0.930469,
2009-03-29, 00:12:04,VALID,1001.01,VALID,0,VALID,92.0819,VALID,0,VALID,23.1354,VALID,79,VALID,0.847656,
2009-03-29, 00:13:04,VALID,1001,VALID,0,VALID,92.0437,VALID,0,VALID,23.1354,VALID,83,VALID,0.833594,
2009-03-29, 00:14:04,VALID,1000.99,VALID,0,VALID,92.0285,VALID,0,VALID,23.1176,VALID,88,VALID,0.649609,
2009-03-29, 00:15:04,VALID,1000.97,VALID,0,VALID,92.1353,VALID,0,VALID,23.0981,VALID,95,VALID,0.694922,
2009-03-29, 00:16:04,VALID,1000.97,VALID,0,VALID,92.3031,VALID,0,VALID,23.0981,VALID,93,VALID,0.594922,
2009-03-29, 00:17:04,VALID,1000.96,VALID,0,VALID,92.3108,VALID,0,VALID,23.0981,VALID,93,VALID,0.576172,
2009-03-29, 00:18:04,VALID,1000.94,VALID,0,VALID,92.2268,VALID,0,VALID,23.0964,VALID,93,VALID,0.423438,
2009-03-29, 00:19:04,VALID,1000.96,VALID,0,VALID,92.2116,VALID,0,VALID,23.0981,VALID,93,VALID,0.375391,
2009-03-29, 00:20:04,VALID,1000.91,VALID,0,VALID,92.1429,VALID,0,VALID,23.0769,VALID,93,VALID,0.424219,
2009-03-29, 00:21:04,VALID,1000.92,VALID,0,VALID,91.9903,VALID,0,VALID,23.0981,VALID,93,VALID,0.467578,
2009-03-29, 00:22:04,VALID,1000.9,VALID,0,VALID,91.7996,VALID,0,VALID,23.0981,VALID,92,VALID,0.661328,
2009-03-29, 00:23:04,VALID,1000.89,VALID,0,VALID,91.6928,VALID,0,VALID,23.0786,VALID,86,VALID,0.550391,
2009-03-29, 00:24:04,VALID,1000.88,VALID,0,VALID,91.6928,VALID,0,VALID,23.0769,VALID,86,VALID,0.5375,
2009-03-29, 00:25:04,VALID,1000.9,VALID,0,VALID,91.4105,VALID,0,VALID,23.0573,VALID,83,VALID,0.585156,
2009-03-29, 00:26:04,VALID,1000.88,VALID,0,VALID,91.8301,VALID,0,VALID,23.0573,VALID,61,VALID,0.538672,
2009-03-29, 00:27:04,VALID,1000.86,VALID,0,VALID,91.792,VALID,0.112286,VALID,23.0573,VALID,45,VALID,0.607422,
2009-03-29, 00:28:04,VALID,1000.85,VALID,0,VALID,91.6394,VALID,0,VALID,23.0006,VALID,45,VALID,0.683594,
2009-03-29, 00:29:04,VALID,1000.84,VALID,0,VALID,91.6394,VALID,0,VALID,22.9403,VALID,42,VALID,0.635938,
2009-03-29, 00:30:04,VALID,1000.81,VALID,0,VALID,91.8072,VALID,0,VALID,22.903,VALID,42,VALID,0.710156,
2009-03-29, 00:31:04,VALID,1000.78,VALID,0,VALID,91.853,VALID,0,VALID,22.8037,VALID,42,VALID,0.660156,
2009-03-29, 00:32:04,VALID,1000.77,VALID,0,VALID,92.0895,VALID,0,VALID,22.7664,VALID,40,VALID,0.737891,
2009-03-29, 00:33:04,VALID,1000.74,VALID,0,VALID,92.7075,VALID,0,VALID,22.7257,VALID,31,VALID,0.734375,
2009-03-29, 00:34:04,VALID,1000.74,VALID,0,VALID,92.7533,VALID,0,VALID,22.7274,VALID,31,VALID,0.782422,
2009-03-29, 00:35:04,VALID,1000.77,VALID,0,VALID,92.8143,VALID,0,VALID,22.6672,VALID,31,VALID,0.739453,
2009-03-29, 00:36:04,VALID,1000.75,VALID,0,VALID,92.8143,VALID,0,VALID,22.6689,VALID,31,VALID,0.665625,
2009-03-29, 00:37:04,VALID,1000.75,VALID,0,VALID,93.1729,VALID,0,VALID,22.6689,VALID,31,VALID,0.479297,
2009-03-29, 00:38:04,VALID,1000.79,VALID,0,VALID,93.3408,VALID,0,VALID,22.6867,VALID,31,VALID,0.53125,
2009-03-29, 00:39:04,VALID,1000.76,VALID,0,VALID,93.3713,VALID,0,VALID,22.6884,VALID,31,VALID,0.397656,
2009-03-29, 00:40:04,VALID,1000.76,VALID,0,VALID,93.295,VALID,0,VALID,22.7079,VALID,31,VALID,0.366016,
2009-03-29, 00:41:04,VALID,1000.77,VALID,0,VALID,92.9898,VALID,0,VALID,22.6689,VALID,31,VALID,0.256641,
2009-03-29, 00:42:04,VALID,1000.76,VALID,0,VALID,93.2187,VALID,0,VALID,22.6282,VALID,31,VALID,0.418359,
2009-03-29, 00:43:04,VALID,1000.74,VALID,0,VALID,93.2874,VALID,0,VALID,22.6494,VALID,31,VALID,0.402734,
2009-03-29, 00:44:04,VALID,1000.71,VALID,0,VALID,93.234,VALID,0,VALID,22.6087,VALID,31,VALID,0.433594,
2009-03-29, 00:45:04,VALID,1000.65,VALID,0,VALID,93.1424,VALID,0,VALID,22.5909,VALID,31,VALID,0,
2009-03-29, 00:46:04,VALID,1000.62,VALID,0,VALID,93.2874,VALID,0,VALID,22.5501,VALID,31,VALID,0.0398437,
2009-03-29, 00:47:04,VALID,1000.6,VALID,0,VALID,93.5239,VALID,0,VALID,22.5501,VALID,31,VALID,0.119922,
2009-03-29, 00:48:04,VALID,1000.57,VALID,0,VALID,93.5773,VALID,0,VALID,22.5714,VALID,31,VALID,0.225391,
2009-03-29, 00:49:04,VALID,1000.59,VALID,0,VALID,93.6002,VALID,0,VALID,22.5714,VALID,31,VALID,0.585938,
2009-03-29, 00:50:04,VALID,1000.54,VALID,0,VALID,93.8977,VALID,0,VALID,22.5696,VALID,36,VALID,0.348047,
2009-03-29, 00:51:04,VALID,1000.54,VALID,0,VALID,93.6307,VALID,0,VALID,22.5909,VALID,36,VALID,0.278516,
2009-03-29, 00:52:04,VALID,1000.53,VALID,0,VALID,93.5086,VALID,0,VALID,22.5519,VALID,36,VALID,0.238672,
2009-03-29, 00:53:04,VALID,1000.5,VALID,0,VALID,93.5391,VALID,0,VALID,22.5323,VALID,36,VALID,0.347266,
2009-03-29, 00:54:04,VALID,1000.52,VALID,0,VALID,93.7451,VALID,0,VALID,22.5306,VALID,36,VALID,0.358984,
2009-03-29, 00:55:04,VALID,1000.5,VALID,0,VALID,93.7451,VALID,0,VALID,22.5323,VALID,36,VALID,0.267969,
2009-03-29, 00:56:04,VALID,1000.49,VALID,0,VALID,93.7757,VALID,0,VALID,22.5306,VALID,36,VALID,0.280859,
2009-03-29, 00:57:04,VALID,1000.48,VALID,0,VALID,93.8367,VALID,0,VALID,22.5306,VALID,36,VALID,0.195313,
2009-03-29, 00:58:04,VALID,1000.46,VALID,0,VALID,93.6917,VALID,0,VALID,22.5323,VALID,36,VALID,0.215234,
2009-03-29, 00:59:04,VALID,1000.42,VALID,0,VALID,93.7604,VALID,0,VALID,22.4916,VALID,36,VALID,0.208203,
2009-03-29, 01:00:04,VALID,1000.4,VALID,0,VALID,93.7833,VALID,0,VALID,22.5128,VALID,36,VALID,0.353125,
2009-03-29, 01:01:04,VALID,1000.39,VALID,0,VALID,93.8062,VALID,0,VALID,22.5128,VALID,36,VALID,0.217578,
2009-03-29, 01:02:04,VALID,1000.32,VALID,0,VALID,93.9435,VALID,0,VALID,22.4933,VALID,36,VALID,0.294922,
2009-03-29, 01:03:04,VALID,1000.29,VALID,0,VALID,93.9817,VALID,0,VALID,22.4916,VALID,36,VALID,0.496094,
2009-03-29, 01:04:04,VALID,1000.28,VALID,0,VALID,94.0198,VALID,0,VALID,22.5323,VALID,36,VALID,0.686719,
2009-03-29, 01:05:04,VALID,1000.27,VALID,0,VALID,93.913,VALID,0,VALID,22.5128,VALID,36,VALID,0.775781,
2009-03-29, 01:06:04,VALID,1000.22,VALID,0,VALID,93.974,VALID,0,VALID,22.5128,VALID,36,VALID,0.596094,
2009-03-29, 01:07:04,VALID,1000.23,VALID,0,VALID,93.7833,VALID,0,VALID,22.4933,VALID,36,VALID,0.691406,
2009-03-29, 01:08:04,VALID,1000.21,VALID,0,VALID,93.7451,VALID,0,VALID,22.4738,VALID,37,VALID,0.806641,
2009-03-29, 01:09:04,VALID,1000.22,VALID,0,VALID,93.6688,VALID,0,VALID,22.4543,VALID,37,VALID,0.828516,
2009-03-29, 01:10:04,VALID,1000.21,VALID,0,VALID,93.4857,VALID,0,VALID,22.3958,VALID,37,VALID,0.638672,
2009-03-29, 01:11:04,VALID,1000.18,VALID,0,VALID,93.5086,VALID,0,VALID,22.3568,VALID,36,VALID,0.762891,
2009-03-29, 01:12:04,VALID,1000.14,VALID,0,VALID,93.7223,VALID,0,VALID,22.3373,VALID,36,VALID,0.721094,
2009-03-29, 01:13:04,VALID,1000.12,VALID,0,VALID,93.7985,VALID,0,VALID,22.2983,VALID,36,VALID,0.667188,
2009-03-29, 01:14:04,VALID,1000.11,VALID,0,VALID,93.9969,VALID,0,VALID,22.3178,VALID,36,VALID,0.738672,
2009-03-29, 01:15:04,VALID,1000.11,VALID,0,VALID,94.2182,VALID,0,VALID,22.3373,VALID,36,VALID,0.614844,
2009-03-29, 01:16:04,VALID,1000.1,VALID,0,VALID,94.2868,VALID,0,VALID,22.3568,VALID,36,VALID,0.745703,
2009-03-29, 01:17:04,VALID,1000.06,VALID,0,VALID,94.3097,VALID,0,VALID,22.3763,VALID,36,VALID,0.712891,
2009-03-29, 01:18:04,VALID,1000.02,VALID,0,VALID,94.2868,VALID,0,VALID,22.3763,VALID,36,VALID,0.743359,
2009-03-29, 01:19:04,VALID,1000.04,VALID,0,VALID,94.1648,VALID,0,VALID,22.3551,VALID,46,VALID,0.760547,
2009-03-29, 01:20:04,VALID,999.995,VALID,0,VALID,94.0808,VALID,0,VALID,22.3568,VALID,47,VALID,0.711328,
2009-03-29, 01:21:04,VALID,1000.01,VALID,0,VALID,94.0122,VALID,0,VALID,22.3373,VALID,49,VALID,0.571875,
2009-03-29, 01:22:04,VALID,999.971,VALID,0,VALID,93.9664,VALID,0,VALID,22.2983,VALID,49,VALID,0.398828,
2009-03-29, 01:23:04,VALID,999.981,VALID,0,VALID,93.9435,VALID,0,VALID,22.2592,VALID,49,VALID,0.320313,
2009-03-29, 01:24:04,VALID,999.943,VALID,0,VALID,93.974,VALID,0,VALID,22.2186,VALID,49,VALID,0.370703,
2009-03-29, 01:25:04,VALID,999.978,VALID,0,VALID,94.0503,VALID,0,VALID,22.2202,VALID,49,VALID,0.416797,
2009-03-29, 01:26:04,VALID,999.98,VALID,0,VALID,94.1571,VALID,0,VALID,22.2202,VALID,49,VALID,0.544531,
2009-03-29, 01:27:04,VALID,1000.01,VALID,0,VALID,94.3097,VALID,0,VALID,22.2397,VALID,49,VALID,0.552734,
2009-03-29, 01:28:04,VALID,999.996,VALID,0,VALID,94.5081,VALID,0,VALID,22.2788,VALID,49,VALID,0.589063,
2009-03-29, 01:29:04,VALID,999.964,VALID,0,VALID,94.5539,VALID,0,VALID,22.2983,VALID,49,VALID,0.658594,
2009-03-29, 01:30:04,VALID,999.991,VALID,0,VALID,94.5615,VALID,0,VALID,22.3373,VALID,49,VALID,0.598828,
2009-03-29, 01:31:04,VALID,999.979,VALID,0,VALID,94.3097,VALID,0,VALID,22.3178,VALID,49,VALID,0.580078,
2009-03-29, 01:32:04,VALID,999.993,VALID,0,VALID,94.0885,VALID,0,VALID,22.2983,VALID,49,VALID,0.508594,
2009-03-29, 01:33:04,VALID,999.988,VALID,0,VALID,94.0732,VALID,0,VALID,22.2592,VALID,49,VALID,0.420703,
2009-03-29, 01:34:04,VALID,1000.01,VALID,0,VALID,94.2487,VALID,0,VALID,22.2592,VALID,49,VALID,0.237891,
2009-03-29, 01:35:04,VALID,999.975,VALID,0,VALID,94.1648,VALID,0,VALID,22.2397,VALID,49,VALID,0.0183594,
2009-03-29, 01:36:04,VALID,1000.01,VALID,0,VALID,94.2411,VALID,0,VALID,22.2397,VALID,49,VALID,0,
2009-03-29, 01:37:04,VALID,999.982,VALID,0,VALID,94.4165,VALID,0,VALID,22.2592,VALID,49,VALID,0,
2009-03-29, 01:38:04,VALID,999.983,VALID,0,VALID,94.4623,VALID,0,VALID,22.2788,VALID,49,VALID,0.186719,
2009-03-29, 01:39:04,VALID,999.928,VALID,0,VALID,94.4394,VALID,0,VALID,22.2576,VALID,49,VALID,0.284375,
2009-03-29, 01:40:04,VALID,999.944,VALID,0,VALID,94.5386,VALID,0,VALID,22.3178,VALID,49,VALID,0.34375,
2009-03-29, 01:41:04,VALID,999.929,VALID,0,VALID,94.592,VALID,0,VALID,22.3568,VALID,49,VALID,0.198828,
2009-03-29, 01:42:04,VALID,999.919,VALID,0,VALID,94.6836,VALID,0,VALID,22.3958,VALID,50,VALID,0.321484,
2009-03-29, 01:43:04,VALID,999.905,VALID,0,VALID,94.5615,VALID,0,VALID,22.3763,VALID,81,VALID,0.228125,
2009-03-29, 01:44:04,VALID,999.925,VALID,0,VALID,94.4471,VALID,0,VALID,22.417,VALID,81,VALID,0.213281,
2009-03-29, 01:45:04,VALID,999.909,VALID,0,VALID,94.4394,VALID,0,VALID,22.3763,VALID,81,VALID,0.333594,
2009-03-29, 01:46:04,VALID,999.866,VALID,0,VALID,94.531,VALID,0,VALID,22.4153,VALID,80,VALID,0.280469,
2009-03-29, 01:47:04,VALID,999.837,VALID,0,VALID,94.3784,VALID,0,VALID,22.3958,VALID,80,VALID,0.0476562,
2009-03-29, 01:48:04,VALID,999.826,VALID,0,VALID,94.2868,VALID,0,VALID,22.3763,VALID,80,VALID,0.00234375,
2009-03-29, 01:49:04,VALID,999.837,VALID,0,VALID,94.3021,VALID,0,VALID,22.3568,VALID,80,VALID,0,
2009-03-29, 01:50:04,VALID,999.787,VALID,0,VALID,94.3555,VALID,0,VALID,22.3568,VALID,80,VALID,0.0554687,
2009-03-29, 01:51:04,VALID,999.783,VALID,0,VALID,94.47,VALID,0,VALID,22.3568,VALID,80,VALID,0.207813,
2009-03-29, 01:52:04,VALID,999.803,VALID,0,VALID,94.4394,VALID,0,VALID,22.3551,VALID,80,VALID,0.376172,
2009-03-29, 01:53:04,VALID,999.797,VALID,0,VALID,94.2334,VALID,0,VALID,22.3568,VALID,77,VALID,0.438281,
2009-03-29, 01:54:04,VALID,999.785,VALID,0,VALID,94.3097,VALID,0,VALID,22.3161,VALID,49,VALID,0.491016,
2009-03-29, 01:55:04,VALID,999.772,VALID,0,VALID,94.4318,VALID,0,VALID,22.3373,VALID,49,VALID,0.433984,
2009-03-29, 01:56:04,VALID,999.729,VALID,0,VALID,94.3631,VALID,0,VALID,22.3178,VALID,49,VALID,0.360156,
2009-03-29, 01:57:04,VALID,999.693,VALID,0,VALID,94.3937,VALID,0,VALID,22.3373,VALID,49,VALID,0.250391,
2009-03-29, 01:58:04,VALID,999.706,VALID,0,VALID,94.4165,VALID,0,VALID,22.3178,VALID,50,VALID,0.342578,
2009-03-29, 01:59:04,VALID,999.689,VALID,0,VALID,94.5691,VALID,0,VALID,22.3373,VALID,65,VALID,0.526563,
2009-03-29, 02:00:04,VALID,999.69,VALID,0,VALID,94.5462,VALID,0,VALID,22.3373,VALID,93,VALID,0.558203,
2009-03-29, 02:01:04,VALID,999.663,VALID,0,VALID,94.5157,VALID,0,VALID,22.3568,VALID,94,VALID,0.484375,
2009-03-29, 02:02:04,VALID,999.66,VALID,0,VALID,94.4013,VALID,0,VALID,22.3356,VALID,94,VALID,0.238281,
2009-03-29, 02:03:04,VALID,999.672,VALID,0,VALID,94.3631,VALID,0,VALID,22.3568,VALID,94,VALID,0.439844,
2009-03-29, 02:04:04,VALID,999.624,VALID,0,VALID,94.2716,VALID,0,VALID,22.3568,VALID,94,VALID,0.0398437,
2009-03-29, 02:05:04,VALID,999.602,VALID,0,VALID,94.18,VALID,0,VALID,22.2966,VALID,94,VALID,0,
2009-03-29, 02:06:04,VALID,999.569,VALID,0,VALID,94.0885,VALID,0,VALID,22.2983,VALID,94,VALID,0,
2009-03-29, 02:07:04,VALID,999.565,VALID,0,VALID,94.18,VALID,0,VALID,22.2788,VALID,94,VALID,0.0699219,
2009-03-29, 02:08:04,VALID,999.507,VALID,0,VALID,94.2792,VALID,0,VALID,22.2788,VALID,94,VALID,0.353906,
2009-03-29, 02:09:04,VALID,999.512,VALID,0,VALID,94.2868,VALID,0,VALID,22.2983,VALID,94,VALID,0.415234,
2009-03-29, 02:10:04,VALID,999.507,VALID,0,VALID,94.1877,VALID,0,VALID,22.2788,VALID,94,VALID,0.505078,
2009-03-29, 02:11:04,VALID,999.528,VALID,0,VALID,94.3097,VALID,0,VALID,22.2771,VALID,46,VALID,0.641797,
2009-03-29, 02:12:04,VALID,999.526,VALID,0,VALID,94.3784,VALID,0,VALID,22.2788,VALID,46,VALID,0.617969,
2009-03-29, 02:13:04,VALID,999.511,VALID,0,VALID,94.2792,VALID,0,VALID,22.2788,VALID,46,VALID,0.460547,
2009-03-29, 02:14:04,VALID,999.498,VALID,0,VALID,94.3937,VALID,0,VALID,22.2983,VALID,46,VALID,0.398438,
2009-03-29, 02:15:04,VALID,999.525,VALID,0,VALID,94.3555,VALID,0,VALID,22.2788,VALID,51,VALID,0.430078,
2009-03-29, 02:16:04,VALID,999.484,VALID,0,VALID,94.3479,VALID,0,VALID,22.2576,VALID,83,VALID,0.623438,
2009-03-29, 02:17:04,VALID,999.52,VALID,0,VALID,94.2563,VALID,0,VALID,22.2788,VALID,87,VALID,0.140625,
2009-03-29, 02:18:04,VALID,999.497,VALID,0,VALID,94.2182,VALID,0,VALID,22.2788,VALID,88,VALID,0.271094,
2009-03-29, 02:19:04,VALID,999.499,VALID,0,VALID,94.3479,VALID,0,VALID,22.2983,VALID,88,VALID,0.216797,
2009-03-29, 02:20:04,VALID,999.483,VALID,0,VALID,94.2487,VALID,0,VALID,22.3178,VALID,88,VALID,0.288672,
2009-03-29, 02:21:04,VALID,999.471,VALID,0,VALID,94.3021,VALID,0,VALID,22.3178,VALID,88,VALID,0.514844,
2009-03-29, 02:22:04,VALID,999.477,VALID,0,VALID,94.2105,VALID,0,VALID,22.3356,VALID,77,VALID,0.493359,
2009-03-29, 02:23:04,VALID,999.469,VALID,0,VALID,94.1724,VALID,0,VALID,22.3763,VALID,75,VALID,0.578125,
2009-03-29, 02:24:04,VALID,999.472,VALID,0,VALID,94.0503,VALID,0,VALID,22.3763,VALID,75,VALID,0.476172,
2009-03-29, 02:25:04,VALID,999.427,VALID,0,VALID,93.9359,VALID,0,VALID,22.3958,VALID,80,VALID,0.4375,
2009-03-29, 02:26:04,VALID,999.425,VALID,0,VALID,93.9054,VALID,0,VALID,22.4153,VALID,80,VALID,0.526563,
2009-03-29, 02:27:04,VALID,999.434,VALID,0,VALID,93.8062,VALID,0,VALID,22.4153,VALID,84,VALID,0.316406,
2009-03-29, 02:28:04,VALID,999.421,VALID,0,VALID,93.9054,VALID,0,VALID,22.4331,VALID,85,VALID,0.721875,
2009-03-29, 02:29:04,VALID,999.447,VALID,0,VALID,93.6765,VALID,0,VALID,22.4738,VALID,88,VALID,0.628906,
2009-03-29, 02:30:04,VALID,999.475,VALID,0,VALID,93.6383,VALID,0,VALID,22.4933,VALID,87,VALID,0.721094,
2009-03-29, 02:31:04,VALID,999.465,VALID,0,VALID,93.6383,VALID,0,VALID,22.5128,VALID,87,VALID,0.545313,
2009-03-29, 02:32:04,VALID,999.471,VALID,0,VALID,93.3408,VALID,0,VALID,22.5323,VALID,87,VALID,0.313672,
2009-03-29, 02:33:04,VALID,999.451,VALID,0,VALID,93.028,VALID,0,VALID,22.4933,VALID,45,VALID,0.516406,
2009-03-29, 02:34:04,VALID,999.457,VALID,0,VALID,93.2034,VALID,0,VALID,22.4933,VALID,45,VALID,0.348437,
2009-03-29, 02:35:04,VALID,999.424,VALID,0,VALID,93.1424,VALID,0,VALID,22.4331,VALID,45,VALID,0.294922,
2009-03-29, 02:36:04,VALID,999.443,VALID,0,VALID,93.2187,VALID,0,VALID,22.4136,VALID,45,VALID,0.248437,
2009-03-29, 02:37:04,VALID,999.415,VALID,0,VALID,93.3637,VALID,0,VALID,22.4348,VALID,45,VALID,0.422266,
2009-03-29, 02:38:04,VALID,999.432,VALID,0,VALID,93.4323,VALID,0.112286,VALID,22.3941,VALID,45,VALID,0.567969,
2009-03-29, 02:39:04,VALID,999.457,VALID,0,VALID,93.3866,VALID,0,VALID,22.4153,VALID,42,VALID,0.634766,
2009-03-29, 02:40:04,VALID,999.424,VALID,0,VALID,93.2111,VALID,0,VALID,22.3763,VALID,42,VALID,0.725,
2009-03-29, 02:41:04,VALID,999.464,VALID,0,VALID,93.5544,VALID,0.112286,VALID,22.3568,VALID,42,VALID,0.437891,
2009-03-29, 02:42:04,VALID,999.455,VALID,0,VALID,93.4094,VALID,0,VALID,22.3568,VALID,42,VALID,0.186719,
2009-03-29, 02:43:04,VALID,999.452,VALID,0,VALID,93.5391,VALID,0,VALID,22.3568,VALID,42,VALID,0,
2009-03-29, 02:44:04,VALID,999.444,VALID,0,VALID,93.4934,VALID,0,VALID,22.3161,VALID,42,VALID,0,
2009-03-29, 02:45:04,VALID,999.413,VALID,0,VALID,93.501,VALID,0,VALID,22.3161,VALID,46,VALID,0.0910156,
2009-03-29, 02:46:04,VALID,999.416,VALID,0,VALID,93.5926,VALID,0.112286,VALID,22.3161,VALID,107,VALID,0.126953,
2009-03-29, 02:47:04,VALID,999.373,VALID,0,VALID,93.7909,VALID,0,VALID,22.3356,VALID,109,VALID,0.525391,
2009-03-29, 02:48:04,VALID,999.375,VALID,0,VALID,93.7757,VALID,0,VALID,22.3551,VALID,125,VALID,0.802344,
2009-03-29, 02:49:04,VALID,999.399,VALID,0,VALID,93.7757,VALID,0.112286,VALID,22.4136,VALID,120,VALID,1.04102,
2009-03-29, 02:50:04,VALID,999.396,VALID,0,VALID,93.4857,VALID,0,VALID,22.4136,VALID,116,VALID,0.523438,
2009-03-29, 02:51:04,VALID,999.41,VALID,0,VALID,93.3713,VALID,0,VALID,22.4543,VALID,95,VALID,0.744141,
2009-03-29, 02:52:04,VALID,999.443,VALID,0,VALID,93.2874,VALID,0,VALID,22.4348,VALID,91,VALID,0.859766,
2009-03-29, 02:53:04,VALID,999.449,VALID,0,VALID,93.2721,VALID,0,VALID,22.4526,VALID,90,VALID,0.776172,
2009-03-29, 02:54:04,VALID,999.471,VALID,0,VALID,93.2721,VALID,0,VALID,22.4721,VALID,79,VALID,0.892969,
2009-03-29, 02:55:04,VALID,999.472,VALID,0,VALID,93.0814,VALID,0,VALID,22.5128,VALID,88,VALID,0.742969,
2009-03-29, 02:56:04,VALID,999.467,VALID,0,VALID,93.0737,VALID,0,VALID,22.5323,VALID,88,VALID,0.569531,
2009-03-29, 02:57:04,VALID,999.48,VALID,0,VALID,93.1653,VALID,0,VALID,22.5323,VALID,99,VALID,0.657422,
2009-03-29, 02:58:04,VALID,999.499,VALID,0,VALID,93.1119,VALID,0,VALID,22.5714,VALID,114,VALID,0.535547,
2009-03-29, 02:59:04,VALID,999.464,VALID,0,VALID,93.0203,VALID,0,VALID,22.5306,VALID,123,VALID,0.473437,
2009-03-29, 03:00:04,VALID,999.487,VALID,0,VALID,92.944,VALID,0,VALID,22.5501,VALID,124,VALID,0.399609,
2009-03-29, 03:01:04,VALID,999.485,VALID,0,VALID,92.9974,VALID,0,VALID,22.5519,VALID,125,VALID,0.273047,
2009-03-29, 03:02:04,VALID,999.483,VALID,0,VALID,93.0356,VALID,0,VALID,22.5306,VALID,118,VALID,0.476953,
2009-03-29, 03:03:04,VALID,999.486,VALID,0,VALID,92.9593,VALID,0,VALID,22.5519,VALID,102,VALID,0.663672,
2009-03-29, 03:04:04,VALID,999.467,VALID,0,VALID,92.8448,VALID,0,VALID,22.5306,VALID,89,VALID,0.71875,
2009-03-29, 03:05:04,VALID,999.48,VALID,0,VALID,92.8372,VALID,0,VALID,22.5306,VALID,89,VALID,0.842969,
2009-03-29, 03:06:04,VALID,999.459,VALID,0,VALID,92.7151,VALID,0,VALID,22.5519,VALID,84,VALID,0.792578,
2009-03-29, 03:07:04,VALID,999.453,VALID,0,VALID,92.5091,VALID,0,VALID,22.5306,VALID,83,VALID,0.964453,
2009-03-29, 03:08:04,VALID,999.459,VALID,0,VALID,92.5854,VALID,0,VALID,22.5306,VALID,89,VALID,0.817578,
2009-03-29, 03:09:04,VALID,999.461,VALID,0,VALID,92.6007,VALID,0,VALID,22.5714,VALID,88,VALID,0.807031,
2009-03-29, 03:10:04,VALID,999.464,VALID,0,VALID,92.7457,VALID,0,VALID,22.5714,VALID,89,VALID,0.761719,
2009-03-29, 03:11:04,VALID,999.475,VALID,0,VALID,92.616,VALID,0,VALID,22.5909,VALID,97,VALID,0.638672,
2009-03-29, 03:12:04,VALID,999.465,VALID,0,VALID,92.5931,VALID,0,VALID,22.5909,VALID,97,VALID,0.445313,
2009-03-29, 03:13:04,VALID,999.45,VALID,0,VALID,92.7609,VALID,0,VALID,22.5714,VALID,97,VALID,0.546094,
2009-03-29, 03:14:04,VALID,999.452,VALID,0,VALID,92.9211,VALID,0,VALID,22.5714,VALID,97,VALID,0.556641,
2009-03-29, 03:15:04,VALID,999.462,VALID,0,VALID,92.7151,VALID,0,VALID,22.5501,VALID,97,VALID,0.429297,
2009-03-29, 03:16:04,VALID,999.467,VALID,0,VALID,92.7838,VALID,0,VALID,22.5306,VALID,97,VALID,0.498047,
2009-03-29, 03:17:04,VALID,999.478,VALID,0,VALID,92.532,VALID,0,VALID,22.4916,VALID,97,VALID,0.370703,
2009-03-29, 03:18:04,VALID,999.455,VALID,0,VALID,92.4634,VALID,0,VALID,22.4526,VALID,53,VALID,0.407813,
2009-03-29, 03:19:04,VALID,999.459,VALID,0,VALID,92.326,VALID,0,VALID,22.4136,VALID,50,VALID,0.489062,
2009-03-29, 03:20:04,VALID,999.493,VALID,0,VALID,92.7304,VALID,0,VALID,22.3958,VALID,43,VALID,0.576172,
2009-03-29, 03:21:04,VALID,999.457,VALID,0,VALID,92.7609,VALID,0,VALID,22.3568,VALID,42,VALID,0.516797,
2009-03-29, 03:22:04,VALID,999.439,VALID,0,VALID,92.8754,VALID,0,VALID,22.3373,VALID,42,VALID,0.164063,
2009-03-29, 03:23:04,VALID,999.46,VALID,0,VALID,92.8448,VALID,0,VALID,22.2966,VALID,42,VALID,0.120703,
2009-03-29, 03:24:04,VALID,999.438,VALID,0,VALID,93.0051,VALID,0,VALID,22.2771,VALID,42,VALID,0.157031,
2009-03-29, 03:25:04,VALID,999.452,VALID,0,VALID,93.0966,VALID,0,VALID,22.2576,VALID,42,VALID,0.213672,
2009-03-29, 03:26:04,VALID,999.432,VALID,0,VALID,93.1805,VALID,0,VALID,22.2397,VALID,42,VALID,0.275391,
2009-03-29, 03:27:04,VALID,999.447,VALID,0,VALID,93.2416,VALID,0.112286,VALID,22.2397,VALID,42,VALID,0.241797,
2009-03-29, 03:28:04,VALID,999.455,VALID,0,VALID,93.3637,VALID,0,VALID,22.199,VALID,42,VALID,0.268359,
2009-03-29, 03:29:04,VALID,999.463,VALID,0,VALID,93.4476,VALID,0,VALID,22.1795,VALID,42,VALID,0.341016,
2009-03-29, 03:30:04,VALID,999.464,VALID,0,VALID,93.4552,VALID,0,VALID,22.16,VALID,42,VALID,0.188281,
2009-03-29, 03:31:04,VALID,999.443,VALID,0,VALID,93.4247,VALID,0,VALID,22.121,VALID,42,VALID,0.0328125,
2009-03-29, 03:32:04,VALID,999.429,VALID,0,VALID,93.4552,VALID,0,VALID,22.1015,VALID,42,VALID,0,
2009-03-29, 03:33:04,VALID,999.436,VALID,0,VALID,93.6307,VALID,0,VALID,22.1032,VALID,42,VALID,0.157031,
2009-03-29, 03:34:04,VALID,999.407,VALID,0,VALID,93.707,VALID,0,VALID,22.082,VALID,42,VALID,0.00585938,
2009-03-29, 03:35:04,VALID,999.381,VALID,0,VALID,93.9435,VALID,0,VALID,22.1015,VALID,42,VALID,0.476172,
2009-03-29, 03:36:04,VALID,999.406,VALID,0,VALID,93.9588,VALID,0,VALID,22.1032,VALID,62,VALID,0.613281,
2009-03-29, 03:37:04,VALID,999.424,VALID,0,VALID,94.0351,VALID,0,VALID,22.1015,VALID,99,VALID,0.834375,
2009-03-29, 03:38:04,VALID,999.419,VALID,0,VALID,94.1037,VALID,0,VALID,22.1617,VALID,99,VALID,0.956641,
2009-03-29, 03:39:04,VALID,999.417,VALID,0,VALID,94.0122,VALID,0,VALID,22.1795,VALID,99,VALID,0.866016,
2009-03-29, 03:40:04,VALID,999.401,VALID,0,VALID,93.8291,VALID,0,VALID,22.2202,VALID,99,VALID,0.747656,
2009-03-29, 03:41:04,VALID,999.389,VALID,0,VALID,93.7757,VALID,0,VALID,22.2202,VALID,99,VALID,0.798437,
2009-03-29, 03:42:04,VALID,999.359,VALID,0,VALID,93.7757,VALID,0,VALID,22.2592,VALID,108,VALID,0.864453,
2009-03-29, 03:43:04,VALID,999.313,VALID,0,VALID,93.7909,VALID,0,VALID,22.2788,VALID,114,VALID,0.841016,
2009-03-29, 03:44:04,VALID,999.289,VALID,0,VALID,93.6841,VALID,0,VALID,22.2771,VALID,106,VALID,0.885156,
2009-03-29, 03:45:04,VALID,999.264,VALID,0,VALID,93.5849,VALID,0,VALID,22.2983,VALID,111,VALID,0.936719,
2009-03-29, 03:46:04,VALID,999.233,VALID,0,VALID,93.5315,VALID,0,VALID,22.3178,VALID,110,VALID,0.963281,